106  
ASUS41 KBTV 152110  
RWRBTV  
VERMONT REGIONAL WEATHER ROUNDUP  
NATIONAL WEATHER SERVICE BURLINGTON VT  
400 PM EST SAT DEC 15 2018  
 
NOTE: "FAIR" INDICATES FEW OR NO CLOUDS BELOW 12,000 FEET WITH NO  
SIGNIFICANT WEATHER AND/OR S TO VISIBILITY
.  
 
* THESE REPORTS ARE NOT UNDER NWS QUALITY CONTROL AND/OR DO NOT  
REPORT WEATHER SUCH AS PRECIPITATION AND FOG.
 
 
VTZ001>019-152200-  
_____VERMONT_____  
 
 
CITY SKY/WX TMP DP RH WIND PRES REMARKS
 
BURLINGTON MOCLDY 39 28 64 N6 30.25R  
MONTPELIER FAIR 36 27 69 N3 30.25R  
MORRISVILLE CLOUDY 37 29 72 N5 30.24R  
ST. JOHNSBURY* N/A 39 25 57 MISG 30.21R  
LYNDONVILLE* MOCLDY 36 28 72 NW5 N/A WCI 32  
MIDDLEBURY* FAIR 37 27 68 CALM 30.23S  
RUTLAND* FAIR 39 28 64 N3 30.20R  
SPRINGFIELD FAIR 41 31 67 CALM 30.21R  
HIGHGATE* FAIR 37 31 79 CALM 30.26S  
NEWPORT* CLOUDY 34 29 80 CALM 30.24R  
BENNINGTON FAIR 43 35 73 CALM 30.17S  
LAKE EDEN* N/A 34 N/A N/A CALM N/A  
 
_____LAKE CHAMPLAIN_____  
 
 
CITY SKY/WX TMP DP RH WIND PRES REMARKS
 
 

 
 
NYZ007-026>031-035-052-083-087-152200-  
_____NORTHERN NEW YORK_____  
 
 
CITY SKY/WX TMP DP RH WIND PRES REMARKS
 
PLATTSBURGH FAIR 37 28 70 N6 30.26R  
SARANAC LAKE FAIR 32 28 85 CALM 30.19R  
MASSENA FAIR 36 32 85 CALM 30.27S  
POTSDAM* FAIR 36 30 80 N5 30.24F WCI 32  
WATERTOWN FAIR 37 30 75 NE8 30.22S WCI 31  
FT DRUM FAIR 35 28 73 NE8 30.21S WCI 29  
ALBANY CLOUDY 44 34 67 N5 30.20S  
GLENS FALLS FAIR 41 31 67 NE5 30.22R  
 

 
NHZ002-005-011-152200-  
_____NEW HAMPSHIRE_____  
 
 
CITY SKY/WX TMP DP RH WIND PRES REMARKS
 
LEBANON FAIR 39 27 62 NE6 30.20R  
KEENE LGT RAIN 43 34 70 CALM 30.18R  
MT WASHINGTON MOCLDY 21 3 45 NW37G53 N/A WCI 1  
PLYMOUTH FAIR 39 27 63 NW5 30.20S  
WHITEFIELD MOCLDY 38 24 57 CALM 30.22R  
 

 
 
_____REGIONAL QUEBEC LOCATIONS_____  
 
 
CITY SKY/WX TMP DP RH WIND PRES REMARKS
 
MONTREAL MOCLDY 39 30 70 W3 30.27R  
QUEBEC CITY MOCLDY 36 32 87 SW8 30.21R WCI 29  
SHERBROOKE CLOUDY 36 28 75 NW3 30.22R  
 
_____REGIONAL ONTARIO LOCATIONS_____  
 
 
CITY SKY/WX TMP DP RH WIND PRES REMARKS
 
OTTAWA MOCLDY 36 30 80 CALM 30.26R  
 
______KEY______  
VSB - VISIBILITY IN MILES  
WCI - WIND CHILL INDEX  
HX - HEAT INDEX  

 
NNNN  
 
 
CLICK HERE TO GO TO PREVIOUS BULLETINS.

The Nexlab VT Page
The Nexlab NY Page Main Text Page